Terminal Aerodrome Forecast
Issued by NWS Twin Cities, MN

Home | Current Version | Previous Version | Graphics & Text | Print | Product List | Glossary On
Versions: 1 2 3 4 5 6 7 8 9 10 11 12 13 14 15 16 17 18 19 20 21 22
533
FTUS43 KMPX 210751 AAA
TAFSTC
TAF AMD
KSTC 210751Z 2108/2206 34020G35KT P6SM TSRA OVC040CB
     FM210930 16007KT P6SM SCT025 BKN035
     FM211800 21006KT P6SM SCT250
     FM212100 33006KT P6SM BKN250=

USA.gov is the U.S. government's official web portal to all federal, state and local government web resources and services.